When you browse on this site, cookies collect data to enhance your experience and personalize the content and advertising you see.
Visit our Privacy Policy to learn more. By continuing to use the site, you agree to this use of cookies and data.
  • In Sweden
  • List of Countries
  • For 7 days
  • Water Temperature
  • Weather Map
  • Weather Widgets
  • user-avatar
    Login

    Hourly Weather Jonkoping

    Today, 18 October, Friday

    Time Temperature Precipitation Wind Pressure Humidity
    00:00 +10°C° 0 mm 2 mps 748 mmHg 96%
    01:00 +10°C° 0 mm 1 mps 748 mmHg 96%
    02:00 +9°C° 0 mm 2 mps 748 mmHg 95%
    03:00 +9°C° 0 mm 2 mps 748 mmHg 94%
    04:00 +8°C° 0 mm 2 mps 748 mmHg 93%
    05:00 +8°C° 0 mm 2 mps 748 mmHg 94%
    06:00 +7°C° 0 mm 2 mps 748 mmHg 94%
    07:00 +7°C° 0 mm 2 mps 748 mmHg 95%
    08:00 +8°C° 0 mm 2 mps 748 mmHg 90%
    09:00 +9°C° 0 mm 2 mps 748 mmHg 86%
    10:00 +10°C° 0 mm 2 mps 747 mmHg 82%
    11:00 +10°C° 0.5 mm 2 mps 747 mmHg 85%
    12:00 +10°C° 0.5 mm 2 mps 747 mmHg 89%
    13:00 +12°C° 0.5 mm 2 mps 746 mmHg 93%
    14:00 +12°C° 0.1 mm 2 mps 746 mmHg 93%
    15:00 +12°C° 0.1 mm 2 mps 746 mmHg 94%
    16:00 +13°C° 0.1 mm 2 mps 745 mmHg 95%
    17:00 +12°C° 0 mm 3 mps 745 mmHg 95%
    18:00 +12°C° 0 mm 3 mps 744 mmHg 95%
    19:00 +12°C° 0 mm 3 mps 744 mmHg 95%
    20:00 +12°C° 0.7 mm 4 mps 743 mmHg 94%
    21:00 +12°C° 0.7 mm 4 mps 743 mmHg 94%
    22:00 +12°C° 0.7 mm 5 mps 742 mmHg 93%
    23:00 +10°C° 1.9 mm 5 mps 743 mmHg 92%

    Tomorrow, 19 October, Saturday

    Time Temperature Precipitation Wind Pressure Humidity
    00:00 +9°C° 1.9 mm 5 mps 743 mmHg 91%
    01:00 +10°C° 1.9 mm 4 mps 743 mmHg 90%
    02:00 +10°C° 0 mm 4 mps 743 mmHg 90%
    03:00 +9°C° 0 mm 5 mps 743 mmHg 90%
    04:00 +9°C° 0 mm 5 mps 744 mmHg 90%
    05:00 +9°C° 0 mm 5 mps 744 mmHg 90%
    06:00 +9°C° 0 mm 5 mps 744 mmHg 89%
    07:00 +9°C° 0 mm 5 mps 745 mmHg 89%
    08:00 +9°C° 0 mm 5 mps 745 mmHg 87%
    09:00 +9°C° 0 mm 5 mps 745 mmHg 85%
    10:00 +9°C° 0 mm 5 mps 745 mmHg 84%
    11:00 +10°C° 0 mm 4 mps 745 mmHg 83%
    12:00 +11°C° 0 mm 4 mps 746 mmHg 82%
    13:00 +11°C° 0 mm 4 mps 746 mmHg 81%
    14:00 +11°C° 0 mm 3 mps 746 mmHg 82%
    15:00 +11°C° 0 mm 3 mps 746 mmHg 83%
    16:00 +11°C° 0 mm 3 mps 746 mmHg 84%
    17:00 +10°C° 0 mm 3 mps 747 mmHg 87%
    18:00 +9°C° 0 mm 3 mps 747 mmHg 90%
    19:00 +9°C° 0 mm 3 mps 747 mmHg 94%
    20:00 +9°C° 0 mm 3 mps 748 mmHg 93%
    21:00 +9°C° 0 mm 3 mps 748 mmHg 92%
    22:00 +9°C° 0 mm 3 mps 748 mmHg 91%
    23:00 +9°C° 1.1 mm 3 mps 748 mmHg 93%

    Day after tomorrow, 20 October, Sunday

    Time Temperature Precipitation Wind Pressure Humidity
    00:00 +9°C° 1.1 mm 3 mps 748 mmHg 94%
    01:00 +9°C° 1.1 mm 3 mps 748 mmHg 95%
    02:00 +10°C° 2.2 mm 3 mps 747 mmHg 95%
    03:00 +10°C° 2.2 mm 3 mps 747 mmHg 96%
    04:00 +10°C° 2.2 mm 4 mps 747 mmHg 96%
    05:00 +10°C° 1.8 mm 3 mps 746 mmHg 96%
    06:00 +11°C° 1.8 mm 3 mps 746 mmHg 96%
    07:00 +11°C° 1.8 mm 3 mps 746 mmHg 96%
    08:00 +11°C° 0.4 mm 3 mps 746 mmHg 94%
    09:00 +11°C° 0.4 mm 3 mps 746 mmHg 92%
    10:00 +12°C° 0.4 mm 3 mps 747 mmHg 90%
    11:00 +12°C° 0 mm 3 mps 747 mmHg 88%
    12:00 +12°C° 0 mm 3 mps 747 mmHg 86%
    13:00 +12°C° 0 mm 3 mps 747 mmHg 83%
    14:00 +12°C° 0 mm 3 mps 747 mmHg 86%
    15:00 +13°C° 0 mm 2 mps 747 mmHg 88%
    16:00 +12°C° 0 mm 2 mps 747 mmHg 90%
    17:00 +10°C° 0 mm 2 mps 748 mmHg 92%
    18:00 +10°C° 0 mm 2 mps 748 mmHg 94%
    19:00 +9°C° 0 mm 2 mps 748 mmHg 96%
    20:00 +9°C° 0 mm 2 mps 749 mmHg 96%
    21:00 +8°C° 0 mm 2 mps 749 mmHg 96%
    22:00 +8°C° 0 mm 2 mps 749 mmHg 96%
    23:00 +8°C° 0 mm 2 mps 749 mmHg 96%

    21 October, Monday

    Time Temperature Precipitation Wind Pressure Humidity
    00:00 +9°C° 0 mm 1 mps 749 mmHg 97%
    01:00 +9°C° 0 mm 1 mps 749 mmHg 97%
    02:00 +8°C° 0 mm 1 mps 749 mmHg 97%
    03:00 +8°C° 0 mm 1 mps 749 mmHg 97%
    04:00 +8°C° 0 mm 1 mps 749 mmHg 98%
    05:00 +8°C° 0 mm 1 mps 750 mmHg 98%
    06:00 +8°C° 0 mm 1 mps 750 mmHg 98%
    07:00 +8°C° 0 mm 1 mps 750 mmHg 98%
    08:00 +8°C° 0 mm 1 mps 750 mmHg 97%
    09:00 +8°C° 0 mm 2 mps 751 mmHg 95%
    10:00 +9°C° 0 mm 2 mps 751 mmHg 94%
    11:00 +9°C° 0 mm 2 mps 751 mmHg 93%
    12:00 +10°C° 0 mm 2 mps 752 mmHg 91%
    13:00 +10°C° 0 mm 3 mps 752 mmHg 89%
    14:00 +10°C° 0 mm 2 mps 752 mmHg 89%
    15:00 +9°C° 0 mm 2 mps 752 mmHg 88%
    16:00 +9°C° 0 mm 2 mps 752 mmHg 87%
    17:00 +8°C° 0 mm 2 mps 752 mmHg 89%
    18:00 +8°C° 0 mm 2 mps 753 mmHg 92%
    19:00 +7°C° 0 mm 2 mps 753 mmHg 94%
    20:00 +7°C° 0 mm 2 mps 753 mmHg 94%
    21:00 +7°C° 0 mm 2 mps 753 mmHg 94%
    22:00 +7°C° 0 mm 3 mps 753 mmHg 94%
    23:00 +7°C° 0 mm 3 mps 754 mmHg 92%

    22 October, Tuesday

    Time Temperature Precipitation Wind Pressure Humidity
    00:00 +7°C° 0 mm 3 mps 754 mmHg 90%
    01:00 +6°C° 0 mm 4 mps 754 mmHg 88%
    02:00 +6°C° 0 mm 4 mps 754 mmHg 89%
    03:00 +5°C° 0 mm 4 mps 754 mmHg 90%
    04:00 +5°C° 0 mm 3 mps 754 mmHg 91%
    05:00 +5°C° 0 mm 3 mps 754 mmHg 91%
    06:00 +5°C° 0 mm 3 mps 755 mmHg 91%
    07:00 +5°C° 0 mm 3 mps 755 mmHg 91%
    08:00 +5°C° 0 mm 3 mps 755 mmHg 86%
    09:00 +7°C° 0 mm 3 mps 756 mmHg 82%
    10:00 +7°C° 0 mm 4 mps 756 mmHg 77%
    11:00 +8°C° 0 mm 4 mps 756 mmHg 77%
    12:00 +10°C° 0 mm 4 mps 757 mmHg 77%
    13:00 +9°C° 0 mm 5 mps 757 mmHg 77%
    14:00 +9°C° 0 mm 5 mps 757 mmHg 77%
    15:00 +8°C° 0 mm 5 mps 757 mmHg 78%
    16:00 +8°C° 0 mm 5 mps 757 mmHg 78%
    17:00 +7°C° 0 mm 5 mps 756 mmHg 79%
    18:00 +7°C° 0 mm 5 mps 756 mmHg 80%
    19:00 +7°C° 0 mm 4 mps 756 mmHg 82%
    20:00 +6°C° 0 mm 5 mps 756 mmHg 83%
    21:00 +6°C° 0 mm 5 mps 756 mmHg 85%
    22:00 +6°C° 0 mm 5 mps 756 mmHg 86%
    23:00 +6°C° 0 mm 5 mps 756 mmHg 83%

    23 October, Wednesday

    Time Temperature Precipitation Wind Pressure Humidity
    00:00 +7°C° 0 mm 5 mps 756 mmHg 80%
    01:00 +8°C° 0 mm 5 mps 756 mmHg 77%
    02:00 +7°C° 0 mm 5 mps 756 mmHg 80%
    03:00 +7°C° 0 mm 5 mps 756 mmHg 84%
    04:00 +7°C° 0 mm 5 mps 756 mmHg 87%
    05:00 +7°C° 0 mm 5 mps 755 mmHg 87%
    06:00 +7°C° 0 mm 5 mps 755 mmHg 88%
    07:00 +7°C° 0 mm 4 mps 755 mmHg 88%
    08:00 +7°C° 0 mm 4 mps 755 mmHg 86%
    09:00 +8°C° 0 mm 4 mps 755 mmHg 83%
    10:00 +8°C° 0 mm 4 mps 755 mmHg 81%
    11:00 +8°C° 0 mm 4 mps 755 mmHg 80%
    12:00 +8°C° 0 mm 4 mps 755 mmHg 80%
    13:00 +10°C° 0 mm 3 mps 755 mmHg 80%
    14:00 +9°C° 0 mm 3 mps 754 mmHg 79%
    15:00 +9°C° 0 mm 3 mps 754 mmHg 79%
    16:00 +9°C° 0 mm 3 mps 754 mmHg 78%
    17:00 +9°C° 0 mm 3 mps 753 mmHg 81%
    18:00 +9°C° 0 mm 3 mps 753 mmHg 83%
    19:00 +8°C° 0 mm 4 mps 753 mmHg 86%
    20:00 +8°C° 0 mm 4 mps 753 mmHg 84%
    21:00 +8°C° 0 mm 4 mps 753 mmHg 83%
    22:00 +8°C° 0 mm 4 mps 753 mmHg 82%
    23:00 +8°C° 0 mm 4 mps 752 mmHg 84%
    Show more